Temp
7 7 7 7 7 7 7 7 7 7 7 7 7 7 7 8 8 8 8 8 8 8 9 9 9 10 10 11 12 12 11 11 12 14 16 19 19 18 18 18 19 19 18 19 19 20 21 22 22 22 23 24 24 25 24 25 25 25 25 25 24 26 27 27 28 27 27 28 27 28 28 27 28 29 29 28 28 27 26 27 26 26 26 27 27 25 24 22
7 7 7 7 7 7 7 7 7 7 7 7 7 8 8 8 8 8 8 8 8 8 8 8 9 11 12 13 14 13 12 11 13 16 18 19 19 18 18 18 18 19 19 19 21 22 22 22 23 23 24 24 24 25 24 25 25 25 26 25 25 28 27 27 27 27 27 27 27 28 28 28 28 28 29 28 28 28 27 27 26 26 26 26 27 25 23 21
6 7 7 7 7 7 7 7 7 7 7 7 7 7 7 7 8 8 8 8 8 8 8 9 10 12 13 14 14 13 12 13 17 19 19 19 19 18 18 18 18 19 19 20 22 23 23 23 23 24 24 24 24 24 24 24 24 25 26 25 27 28 26 26 26 26 26 27 27 27 28 28 28 28 28 28 29 28 28 27 27 26 26 26 26 24 22 21
6 6 7 7 7 7 7 7 7 7 7 7 7 7 7 7 7 7 7 7 8 8 8 9 11 13 14 14 15 13 12 17 21 21 20 19 19 18 18 18 18 18 19 20 22 23 23 24 24 24 24 24 24 24 24 24 25 26 25 26 27 26 26 26 26 26 26 27 26 27 28 28 29 29 28 28 29 29 29 29 28 27 26 26 26 24 22 22
7 6 7 7 7 7 7 7 7 7 7 7 7 7 7 7 7 7 7 7 8 7 8 10 12 13 14 15 15 13 14 20 22 21 20 19 19 18 18 19 18 18 18 20 21 22 23 24 24 24 24 24 24 24 25 25 25 25 25 26 26 25 26 26 26 26 26 27 27 27 27 28 28 29 29 29 29 29 29 29 29 28 27 26 26 24 22 22
6 6 6 6 7 7 7 7 7 7 7 7 7 7 7 7 7 7 7 7 8 7 8 10 12 13 14 16 15 13 17 22 22 21 20 20 19 19 19 18 18 18 19 21 22 22 23 23 23 23 24 25 24 24 25 25 25 25 26 26 25 25 26 26 26 26 26 26 26 27 27 27 28 28 29 29 29 30 30 29 29 29 27 26 26 24 22 22
6 6 6 6 7 7 7 7 7 7 7 7 7 7 7 7 7 7 7 7 7 8 8 10 12 14 15 15 15 15 20 23 22 20 20 19 19 19 18 18 18 18 20 22 22 23 23 23 23 24 24 24 24 25 25 25 25 24 26 26 25 25 25 26 26 26 26 26 26 27 27 27 28 28 29 29 29 30 29 29 29 28 27 26 25 23 22 22
6 6 6 7 6 6 6 6 6 7 7 7 7 7 7 7 8 9 8 7 7 7 8 10 12 14 14 15 16 19 22 22 21 19 19 19 19 19 18 17 18 19 21 22 23 23 23 23 24 24 25 25 24 25 25 25 25 24 25 25 25 25 25 26 26 26 26 26 27 27 27 27 28 28 28 29 29 29 28 28 28 27 26 26 24 22 22 22
6 6 6 7 7 6 6 6 6 7 7 7 7 7 7 7 9 10 9 8 7 7 7 9 12 14 13 14 18 22 22 21 20 19 18 18 18 18 18 18 18 20 22 23 23 23 23 23 24 24 24 25 24 25 24 24 25 25 25 25 25 25 26 26 26 26 26 27 27 26 26 28 29 28 28 29 29 28 27 28 28 26 26 25 23 21 21 21
6 6 6 6 7 6 6 6 6 6 7 7 7 7 7 8 9 8 8 8 7 7 7 9 12 13 12 15 19 22 21 20 19 19 18 17 18 18 19 19 19 21 22 22 23 23 24 24 25 24 24 24 24 24 24 24 25 25 25 25 25 25 26 26 26 26 26 27 27 26 26 28 29 27 28 29 27 27 27 27 27 26 26 25 22 21 21 21
6 6 6 6 6 6 6 6 7 6 6 6 7 7 7 8 8 8 9 8 7 7 7 8 11 12 13 16 20 22 21 19 19 19 18 17 18 19 19 20 20 21 22 22 22 23 23 24 24 24 24 24 24 24 24 25 25 25 25 25 25 25 25 25 26 26 26 27 27 27 27 28 28 27 28 28 27 27 27 26 26 26 25 24 21 21 21 21
6 6 6 6 6 6 6 6 7 6 6 6 6 7 8 9 10 10 10 10 8 7 7 9 10 11 13 17 20 21 20 19 19 18 19 18 18 19 19 19 20 21 22 23 23 23 23 23 24 23 24 24 24 24 24 25 25 24 24 24 25 25 25 26 26 26 26 26 28 27 26 27 28 28 29 27 26 27 26 26 26 25 25 23 21 21 21 21
6 6 6 6 6 6 6 6 7 7 6 6 6 7 10 11 11 12 12 10 9 7 7 8 10 10 13 18 21 20 19 18 18 18 18 19 19 19 19 19 20 20 21 22 23 22 22 22 23 23 24 24 25 24 24 25 24 24 24 24 25 25 25 27 26 26 26 26 27 26 24 26 29 29 28 27 27 27 26 26 26 25 24 22 21 20 20 20
6 6 6 6 6 6 6 6 6 6 6 6 6 8 11 11 12 13 12 11 8 7 7 8 9 11 14 20 21 19 19 18 17 18 19 19 20 20 19 19 19 20 20 21 22 21 21 22 22 23 24 24 25 24 24 24 24 25 25 24 25 24 24 27 26 26 26 26 27 26 23 25 30 29 27 27 27 27 26 26 25 25 24 22 21 21 21 21
6 6 6 6 6 6 6 6 6 6 6 6 7 9 11 11 11 12 11 11 9 7 7 8 9 12 16 20 20 18 18 17 18 19 19 19 20 21 20 19 19 19 20 21 21 21 21 22 22 23 23 24 24 24 24 24 24 25 23 23 24 23 24 26 26 26 26 26 27 26 23 26 30 28 27 27 26 27 27 26 25 25 24 22 21 22 22 21
5 6 6 5 5 6 6 6 6 6 6 6 7 10 11 10 10 10 11 10 10 8 8 11 11 12 17 21 19 17 18 19 19 20 19 19 20 21 21 20 20 19 20 20 21 21 21 22 23 23 24 23 23 24 24 24 23 25 23 22 23 23 24 25 26 26 26 26 27 26 25 27 29 28 27 27 26 26 27 27 26 25 25 23 21 22 22 22
5 5 5 5 5 5 5 6 6 6 6 6 8 11 10 9 8 9 9 9 9 8 10 13 13 13 17 20 19 19 21 21 20 20 19 19 20 21 21 21 21 20 21 21 21 21 22 22 23 23 23 23 24 24 23 21 22 23 24 23 23 23 23 24 25 26 26 26 26 26 26 27 29 29 28 27 26 26 26 27 27 26 25 24 22 22 23 22
5 5 5 5 5 5 5 5 6 6 6 7 9 11 10 9 8 9 9 9 9 10 11 12 13 15 19 20 20 21 22 21 20 20 19 19 20 21 21 22 22 21 21 21 21 22 22 22 23 23 23 23 24 24 22 21 22 22 23 22 23 23 23 23 24 26 26 26 26 26 26 27 28 29 28 27 27 26 26 27 27 26 26 25 23 23 24 24
5 6 5 5 5 5 5 5 6 6 6 8 10 9 9 9 8 10 10 11 12 14 16 15 15 19 20 20 21 21 21 20 20 20 20 19 20 21 22 22 22 22 22 21 21 22 22 22 22 22 22 23 23 24 23 24 24 23 23 23 23 23 23 24 25 26 26 25 25 26 26 27 28 28 28 27 27 26 26 26 26 26 26 25 24 24 25 25
5 5 5 5 5 5 5 5 5 6 7 8 9 9 11 12 14 14 13 12 15 18 20 18 19 20 20 20 22 21 21 21 21 22 21 20 21 22 22 22 22 22 22 22 22 22 22 22 21 22 23 24 24 24 25 24 24 24 24 23 23 23 23 25 25 25 26 24 25 26 26 27 28 28 28 27 27 26 26 26 26 26 26 26 25 24 24 25
5 5 5 5 5 5 5 5 5 7 8 8 8 12 15 16 17 17 15 16 18 19 19 19 20 20 20 21 21 21 21 21 22 22 21 20 22 22 22 22 21 21 22 23 22 22 22 21 22 23 24 24 24 23 23 23 23 23 23 23 23 23 24 25 25 25 26 24 24 26 26 26 27 28 28 27 27 27 27 26 26 26 26 26 26 25 24 24
5 5 5 5 5 5 5 5 6 7 8 8 10 14 16 15 14 14 15 17 19 19 19 19 19 19 19 20 19 19 20 20 22 22 21 21 22 22 22 22 21 22 22 22 21 21 21 21 23 24 24 23 23 23 22 22 23 23 23 23 22 24 24 24 24 25 25 24 24 26 25 26 27 28 28 27 27 27 27 27 27 26 26 26 26 25 25 24
5 5 5 5 5 5 5 5 7 8 8 9 11 14 15 13 12 13 14 16 18 19 19 18 18 18 19 19 19 18 19 20 21 22 21 21 22 22 22 22 22 23 22 21 22 21 21 22 24 24 23 22 22 22 22 22 22 23 23 22 22 24 23 22 24 25 25 24 24 25 24 25 27 27 28 28 27 28 28 28 28 27 27 27 27 26 25 24
5 5 5 5 5 5 6 6 8 9 8 9 11 13 12 12 12 13 14 16 18 19 19 18 18 19 19 19 19 18 19 21 22 22 22 21 22 23 22 22 22 22 22 22 22 22 22 23 24 23 22 22 22 22 22 22 22 23 23 22 22 24 23 22 24 25 24 24 24 24 22 23 26 26 27 28 28 28 28 28 28 28 27 27 27 27 26 25
5 5 5 5 5 5 6 7 9 9 8 11 12 11 11 11 12 12 14 17 18 19 19 18 18 19 19 18 18 19 20 21 22 23 23 23 23 22 23 23 23 22 22 22 22 23 23 23 23 22 22 22 22 22 22 22 22 23 23 23 23 24 23 24 24 24 22 22 24 24 21 22 25 26 27 28 27 27 28 27 27 27 27 27 27 27 26 25
4 5 4 5 5 5 8 10 9 8 10 13 12 11 11 11 11 11 14 17 19 20 19 18 19 19 19 19 19 20 20 20 22 23 23 23 24 23 23 23 23 23 23 23 22 23 23 22 22 22 22 22 22 22 23 23 22 22 23 24 24 24 24 23 23 22 21 22 24 24 22 21 24 25 27 28 27 27 28 27 27 27 27 27 27 27 26 25
4 4 4 5 4 5 9 11 9 9 12 13 11 10 11 11 11 11 14 18 19 20 20 19 19 19 19 20 20 19 20 20 21 22 22 23 24 24 23 22 22 22 23 23 21 22 23 22 22 22 22 22 22 22 23 23 22 22 24 24 24 24 23 23 23 22 22 23 23 24 23 21 21 24 27 28 27 27 28 27 27 28 28 28 27 27 27 26
4 4 4 5 4 4 6 7 8 11 13 11 10 11 11 11 11 13 15 18 19 20 20 20 19 19 20 20 20 20 20 21 21 21 22 23 23 23 22 22 23 22 23 22 20 22 23 21 21 22 21 22 22 23 24 23 22 23 24 24 24 24 24 24 23 22 23 23 21 22 23 21 21 24 27 27 26 27 27 28 28 28 28 28 27 27 27 26
4 4 4 4 4 5 5 5 8 11 11 10 10 11 11 11 12 15 17 17 19 20 20 20 19 19 20 19 19 20 20 21 21 21 22 22 22 22 22 23 24 23 22 22 22 22 22 22 22 22 22 22 23 24 24 23 23 24 24 23 24 24 24 24 23 23 22 21 20 22 22 21 21 23 25 25 25 26 27 27 27 27 27 27 27 27 26 26
4 4 4 4 5 7 7 6 8 9 9 10 10 10 10 12 14 16 16 17 19 20 20 20 20 20 20 20 20 20 20 21 21 21 21 22 22 22 22 23 24 23 22 22 23 23 22 22 22 23 23 23 24 24 24 23 24 24 23 23 23 23 24 23 23 23 21 20 21 22 22 22 21 22 25 25 24 25 25 25 25 25 26 26 26 26 26 26
4 4 4 4 6 7 7 9 10 9 9 10 10 10 12 15 17 17 16 17 19 20 20 20 20 21 21 20 21 20 20 21 21 21 21 21 21 21 22 22 22 22 21 21 22 22 22 22 22 23 23 23 23 23 23 24 24 23 23 23 22 22 22 22 22 22 21 20 21 22 23 22 21 22 25 25 24 24 24 23 24 24 24 25 25 25 26 25
4 4 4 4 5 5 7 10 10 8 9 9 10 13 15 16 16 17 18 18 18 19 20 19 20 21 20 20 21 21 21 21 21 21 21 21 21 21 22 22 21 21 20 21 21 22 22 22 23 23 23 23 23 23 22 23 23 23 23 22 21 21 21 20 21 21 20 21 21 23 23 22 21 23 25 25 24 24 23 23 23 23 23 24 25 25 25 24
4 4 4 5 5 5 7 8 8 8 9 9 11 15 16 16 16 17 19 19 18 18 19 19 19 20 20 20 21 21 21 21 21 22 22 22 21 21 22 23 23 22 21 21 21 21 21 22 23 23 23 23 23 22 22 22 22 22 22 21 21 20 20 20 20 21 21 21 22 23 22 21 22 23 24 24 23 23 23 23 23 22 23 24 24 25 24 24
4 4 5 5 5 6 6 7 7 8 8 10 14 16 15 15 16 17 18 19 18 18 19 19 19 20 21 21 21 21 21 21 22 22 22 22 21 21 22 22 23 23 22 21 21 21 20 21 22 23 23 23 23 23 23 24 23 23 24 23 21 21 21 20 20 21 21 21 21 22 22 21 21 22 23 23 23 23 23 23 23 23 23 24 24 24 23 23
5 6 6 6 6 7 7 7 7 7 9 13 16 16 15 15 17 17 17 18 18 18 19 19 19 20 21 21 21 21 21 21 22 22 22 22 21 21 22 22 22 23 22 21 20 21 20 21 23 24 23 24 23 24 25 24 23 24 25 24 22 22 22 21 20 21 20 21 21 21 21 23 22 22 22 22 22 22 22 22 23 23 23 23 23 23 23 22
7 7 7 7 7 8 8 7 7 7 10 15 16 15 16 16 17 18 17 17 17 17 18 19 19 20 21 21 21 21 21 21 21 22 22 22 22 22 22 23 23 23 23 22 21 21 20 21 23 23 22 24 24 24 25 24 23 23 23 22 23 25 24 21 20 20 20 20 21 21 21 23 23 22 22 22 21 21 22 22 22 21 21 21 20 20 20 21
7 8 10 10 9 8 7 7 7 8 12 16 16 15 17 17 17 17 17 17 17 17 18 19 19 19 20 20 21 21 21 21 21 21 21 22 22 22 23 23 23 23 23 23 22 22 21 21 23 23 22 23 24 24 25 25 24 23 22 23 25 25 24 22 21 20 20 20 21 21 21 22 22 21 21 22 20 20 21 22 22 21 21 20 19 18 19 19
6 9 12 12 10 9 8 8 8 11 14 16 15 15 16 16 16 16 16 16 17 17 17 18 18 19 19 20 20 21 21 20 21 21 21 21 21 22 23 23 23 23 24 24 22 22 22 21 22 24 23 23 23 23 23 24 25 24 23 25 24 22 21 22 21 20 21 20 21 21 21 21 21 21 21 21 20 19 20 21 22 21 21 20 20 20 19 18
7 10 13 11 10 11 10 9 11 14 15 15 15 15 16 16 16 16 16 16 16 17 17 18 18 18 19 19 20 20 20 20 21 21 21 21 21 21 22 22 22 23 23 24 23 22 22 21 21 23 23 23 23 22 22 22 23 24 23 25 24 22 22 22 21 21 21 20 21 21 21 21 21 21 21 20 19 19 19 20 21 21 21 21 21 20 20 19
10 13 14 11 10 11 10 10 13 15 16 15 16 16 16 16 16 16 16 16 16 17 17 17 18 18 18 19 19 19 20 20 21 20 21 21 20 20 21 22 22 22 22 23 23 22 22 21 20 22 23 22 22 22 23 23 23 23 22 22 23 23 23 22 22 22 21 21 21 21 21 20 19 20 20 19 19 19 19 19 20 20 20 20 20 20 20 19
12 14 13 10 10 11 10 12 14 16 16 16 16 16 15 15 16 16 16 16 16 17 17 17 17 18 18 18 19 19 19 20 21 20 21 21 21 20 20 21 21 22 21 21 22 22 22 21 20 21 22 22 22 23 23 23 23 23 23 23 23 23 22 21 21 22 22 21 21 21 21 19 18 18 19 19 18 19 19 19 19 19 19 19 19 18 18 17
13 14 12 10 10 10 12 14 15 15 16 15 15 15 15 15 15 16 16 16 16 17 17 17 17 17 17 18 19 19 19 20 20 20 20 21 21 20 19 19 20 22 21 21 22 22 21 21 21 21 21 22 22 22 22 22 23 23 23 24 24 24 22 21 20 21 21 21 21 21 21 19 17 18 19 18 18 18 19 19 19 19 18 17 16 15 15 15
14 14 11 10 10 11 13 15 15 15 16 15 14 15 15 15 15 15 16 16 16 16 17 17 17 17 17 18 18 18 19 19 19 20 20 20 20 19 19 19 19 21 22 22 22 21 20 21 20 20 22 23 23 22 22 22 22 23 23 23 23 23 23 22 22 21 21 21 21 21 21 19 16 17 18 17 17 16 16 17 18 17 16 15 14 14 14 13
15 14 13 11 11 12 14 15 15 15 15 14 14 15 14 14 15 15 15 16 16 16 16 16 17 17 17 17 17 18 18 18 19 20 20 20 19 18 19 19 19 20 21 21 21 21 20 20 20 20 20 21 21 21 21 21 22 22 21 21 21 22 22 22 22 22 21 21 21 21 20 18 16 18 18 17 15 14 14 14 14 14 14 14 14 13 13 13
15 14 14 13 12 13 14 15 15 15 14 14 14 14 14 14 14 15 15 15 16 16 15 16 17 16 17 17 17 18 18 18 18 19 19 19 19 18 19 19 19 20 20 19 21 21 20 20 20 20 20 20 20 20 20 21 21 21 20 20 20 20 21 21 21 21 21 21 21 21 19 17 16 18 17 16 15 14 13 13 13 13 13 13 13 12 12 12
15 14 14 14 14 14 14 14 14 15 14 14 14 14 14 15 15 14 14 15 15 15 15 16 16 16 16 17 17 17 18 18 18 19 19 19 19 18 18 19 19 18 17 17 20 21 20 19 19 19 19 19 19 19 19 20 21 20 20 19 19 19 19 20 21 21 20 21 21 21 20 18 16 16 15 14 14 13 12 12 12 12 12 12 12 12 12 12
15 15 14 14 14 14 14 14 15 15 14 14 14 14 14 14 15 14 14 15 15 15 15 16 16 16 16 16 16 17 18 18 18 18 18 18 18 18 18 19 18 17 16 18 19 19 19 18 17 17 18 18 18 18 19 20 20 19 19 19 18 18 19 19 20 19 19 20 20 20 20 18 15 13 13 12 12 12 11 11 11 11 11 11 12 12 12 12
14 15 15 14 14 15 14 15 15 14 14 14 13 13 14 14 14 14 14 15 15 15 15 15 15 16 16 15 16 16 17 17 17 17 17 18 18 18 18 18 18 17 17 19 19 19 20 18 15 15 16 17 18 19 19 19 19 18 18 17 17 18 18 18 18 18 19 20 19 19 19 16 13 11 11 11 11 10 10 10 10 10 11 11 11 11 11 10
14 14 14 13 14 15 14 13 14 14 14 14 13 13 14 14 14 14 14 15 15 15 15 15 15 16 16 16 16 16 16 16 15 16 16 16 17 17 16 15 16 16 17 17 17 18 19 17 15 15 15 14 15 17 18 19 18 17 17 16 17 17 17 17 16 16 18 18 18 17 15 12 11 11 10 10 10 10 10 10 10 10 10 10 10 10 10 10
15 15 14 14 14 14 13 13 14 14 14 14 13 13 14 14 14 14 14 14 14 14 15 15 15 15 16 16 16 15 14 14 14 14 14 15 16 16 15 14 14 15 15 15 15 17 18 16 16 16 15 13 14 16 17 18 17 16 15 15 16 17 16 15 14 15 17 17 16 15 13 11 10 10 10 10 10 10 9 9 10 9 9 9 9 9 9 9
13 14 13 15 15 13 13 14 14 14 15 14 14 14 13 14 14 14 14 15 15 14 15 15 14 15 16 16 15 15 14 14 14 14 14 15 15 16 15 15 14 14 14 14 14 15 17 16 15 16 16 14 13 15 16 17 17 16 13 12 13 14 15 14 13 13 15 15 15 15 15 12 10 10 10 10 10 9 8 9 9 8 8 8 8 8 8 8
13 13 13 15 14 12 13 14 14 14 14 13 13 13 13 14 14 14 14 14 15 15 15 15 14 15 15 15 15 15 14 14 15 15 15 15 15 15 15 14 14 13 13 13 13 14 16 16 16 16 17 15 13 14 15 16 17 15 12 10 10 12 13 13 13 12 12 13 14 15 14 11 10 10 10 9 9 8 8 8 8 8 8 8 7 7 7 7
Height
811 810 810 810 810 809 808 807 806 805 804 803 802 801 800 799 798 797 796 795 794 793 791 790 789 788 787 786 784 783 782 782 782 782 780 776 774 774 773 774 774 775 777 779 781 781 782 782 782 783 783 782 782 780 783 781 779 782 784 785 780 772 769 768 769 770 771 771 771 768 767 770 768 762 758 757 757 760 762 760 759 759 760 759 758 762 766 771
810 810 810 809 809 809 808 807 806 804 803 802 801 800 799 798 797 796 796 794 794 792 790 789 788 787 786 785 784 782 781 781 781 779 776 774 773 772 772 772 774 775 776 778 779 778 779 779 780 782 780 781 781 780 783 781 781 782 780 782 775 768 768 769 771 772 773 774 773 769 766 768 767 764 759 761 762 760 764 764 761 763 764 761 760 766 770 773
810 810 809 809 809 808 808 806 805 804 803 801 800 799 798 797 796 795 795 793 792 791 789 788 787 786 785 784 783 782 781 781 778 775 773 773 772 771 771 771 773 774 776 777 777 777 777 777 779 779 778 780 780 781 783 781 782 779 778 780 771 767 772 771 772 774 773 773 773 770 767 766 763 761 760 763 762 760 762 762 763 765 765 763 762 767 771 774
810 809 809 808 808 807 807 806 805 804 802 800 799 798 797 796 795 794 793 792 791 789 788 787 786 785 784 783 782 781 782 778 773 771 772 772 770 770 770 771 772 774 776 777 777 777 777 777 778 778 778 780 780 781 782 780 780 777 778 778 770 770 774 773 773 773 772 771 773 771 767 765 761 759 760 762 762 760 758 755 758 761 762 763 763 767 772 774
810 809 808 808 807 806 806 805 804 803 801 799 798 797 796 795 794 793 792 791 790 789 788 786 785 784 784 783 782 781 781 776 770 770 771 770 769 769 769 770 773 775 776 778 778 778 778 777 777 778 779 779 781 782 780 777 776 777 777 774 772 774 774 772 772 772 772 771 771 770 769 766 761 759 758 760 763 759 754 751 751 754 758 761 762 767 772 774
809 808 808 807 806 806 805 804 803 802 800 798 797 796 795 793 792 792 791 790 789 788 787 786 785 784 783 782 781 781 779 773 769 770 769 768 768 768 769 771 773 775 777 777 777 777 777 777 778 780 778 778 780 780 778 774 775 779 775 771 773 774 774 772 771 772 771 772 772 770 767 765 764 761 756 758 760 753 749 749 749 751 755 760 763 768 772 775
808 807 807 806 805 805 804 803 802 800 799 797 796 795 794 792 791 790 789 789 788 787 786 785 784 783 782 781 780 779 775 770 768 769 768 767 768 768 770 772 774 776 776 776 776 776 776 778 778 777 777 778 779 777 776 774 776 779 775 772 774 773 774 772 770 771 770 772 771 767 766 766 766 762 757 757 755 749 749 748 748 751 755 761 765 770 773 775
807 807 806 805 804 803 803 801 800 799 797 796 795 793 792 791 790 789 788 788 787 786 785 784 783 783 782 781 779 774 769 768 768 768 767 767 768 769 771 773 775 776 776 775 775 775 775 777 776 775 776 776 776 776 776 776 777 779 776 773 773 773 773 770 770 770 770 770 767 766 768 766 761 760 759 756 752 749 749 748 748 753 757 761 766 771 773 775
807 806 805 805 803 802 801 800 799 797 796 795 793 792 791 790 789 787 787 786 786 785 784 784 783 782 782 781 777 770 766 767 769 768 767 767 768 770 772 773 775 776 775 775 774 775 775 776 774 773 775 774 775 775 775 778 776 775 774 772 773 773 771 770 770 769 769 768 766 768 769 763 757 759 759 752 751 750 749 749 750 755 759 762 768 772 774 775
806 806 805 804 803 802 800 800 798 796 795 794 792 791 790 789 787 786 785 785 785 784 784 783 783 782 782 781 776 769 766 768 768 768 767 768 769 771 773 774 775 775 775 775 775 774 773 774 772 773 774 774 775 774 775 777 773 771 773 773 773 773 770 770 770 769 768 766 766 768 769 761 756 761 761 752 751 751 750 752 753 756 759 763 770 772 773 775
806 805 804 803 802 801 800 799 797 796 794 792 791 790 789 787 786 785 784 784 783 783 783 783 782 783 783 780 774 767 765 768 768 768 768 769 770 772 773 774 774 775 774 775 775 774 774 774 772 774 775 773 774 775 774 773 771 772 774 775 773 772 770 770 770 768 767 766 763 764 767 762 758 761 759 752 752 751 753 755 755 757 760 764 770 772 773 775
806 805 804 802 801 800 799 798 796 795 793 791 790 788 787 786 784 783 782 782 782 782 782 782 782 782 782 779 771 765 765 768 768 769 769 770 772 773 773 774 775 775 774 774 775 774 775 775 773 775 774 771 773 776 773 770 772 773 774 777 773 770 770 767 766 766 766 766 760 763 770 765 760 758 753 751 752 752 755 757 757 759 762 766 770 772 774 775
805 804 803 802 800 799 798 796 795 793 791 790 788 787 785 784 783 782 780 780 780 780 781 781 781 783 782 774 765 764 766 767 768 769 770 771 772 773 774 775 775 775 775 774 774 775 776 776 775 774 772 771 772 774 772 770 774 774 773 776 773 771 769 763 764 765 765 765 759 766 775 764 753 752 750 751 752 754 757 759 759 760 763 769 772 773 774 775
804 803 802 800 799 798 797 795 793 791 790 788 786 785 783 782 781 780 779 778 778 779 780 781 781 783 781 769 762 764 765 766 768 768 769 770 771 772 773 774 775 776 776 775 775 776 777 777 776 774 773 771 770 771 772 773 774 773 773 775 772 772 768 762 764 765 764 764 758 766 774 760 748 750 751 751 751 754 758 759 760 761 764 769 772 773 773 774
803 803 801 800 798 797 795 794 792 790 788 786 785 783 782 781 779 778 778 777 777 778 779 781 781 781 777 765 762 764 764 766 766 766 768 769 770 771 771 773 774 775 776 776 776 777 777 777 777 775 773 771 771 774 774 773 772 772 777 776 771 771 767 763 764 763 764 763 758 765 771 758 747 750 751 751 752 754 756 758 760 761 764 769 772 772 772 773
802 802 800 799 797 796 794 792 790 788 787 785 783 782 780 779 778 778 777 777 777 778 780 781 780 781 773 762 761 763 763 764 763 764 766 767 769 769 770 772 774 775 776 776 776 776 777 776 775 772 772 773 774 773 772 775 773 771 774 773 770 771 767 765 765 762 763 763 760 763 765 756 748 750 751 751 753 755 756 755 757 760 762 766 771 770 770 773
801 801 799 798 796 794 793 791 789 787 785 784 782 781 780 779 778 778 777 778 778 779 781 780 779 780 771 761 762 761 759 761 762 763 765 766 768 767 769 771 772 774 774 776 777 776 776 775 775 774 773 773 770 770 776 781 776 771 772 771 770 771 770 768 766 763 762 764 763 762 762 757 749 749 751 752 753 755 756 755 755 758 760 763 769 769 768 771
800 799 798 796 795 793 791 789 788 786 784 782 781 780 779 778 778 778 778 778 779 781 781 779 780 776 766 760 760 757 757 760 761 762 764 765 767 768 769 769 770 772 773 775 775 775 776 774 774 775 774 774 771 772 779 776 769 769 771 772 770 771 773 771 767 764 763 765 765 763 763 758 750 749 751 751 751 755 756 755 755 756 759 762 766 767 765 766
799 798 797 795 793 792 790 788 786 784 782 781 780 780 779 779 779 779 779 779 777 773 770 771 771 765 761 758 757 756 758 759 760 761 762 763 765 767 767 767 768 770 772 774 774 774 775 775 777 777 775 774 771 768 768 766 766 768 769 770 771 771 770 769 766 763 763 768 767 763 762 756 751 750 750 751 751 754 756 755 756 756 757 760 764 765 763 763
798 797 796 794 792 791 789 787 785 783 782 780 780 780 778 775 772 772 775 775 769 762 758 761 760 757 758 757 755 757 757 758 758 758 760 762 763 765 766 766 767 769 770 771 773 772 772 777 779 774 768 765 765 764 763 765 768 770 770 771 770 770 769 766 767 763 762 770 767 760 760 756 753 750 748 751 752 753 755 756 756 755 756 758 760 762 762 763
797 796 794 792 791 789 787 786 784 782 780 779 780 778 773 771 768 768 770 766 759 758 757 756 756 755 756 756 756 757 757 757 756 756 759 760 760 763 764 765 769 771 767 766 770 772 774 778 773 764 761 760 763 766 768 771 773 773 771 770 768 767 766 764 767 763 761 772 768 758 760 758 753 750 746 749 753 753 752 754 755 754 754 755 757 760 761 762
796 794 792 791 789 787 786 784 782 781 779 779 780 776 773 773 774 774 773 765 756 755 755 754 755 755 756 757 758 759 759 758 756 755 757 759 758 760 761 764 768 767 765 767 772 777 780 776 764 758 760 764 767 769 772 775 775 774 771 770 768 763 764 765 765 763 763 770 767 759 761 759 752 748 746 748 751 750 747 748 750 751 753 753 754 757 759 761
794 792 791 789 787 787 785 782 781 779 779 780 779 777 775 777 777 776 776 770 758 751 751 753 753 753 754 755 756 759 760 757 755 753 754 757 756 756 759 762 763 762 766 770 770 775 777 767 757 758 764 768 772 772 774 776 775 774 770 771 768 763 769 772 765 764 764 766 765 762 764 760 752 749 746 745 747 746 744 743 744 746 749 750 749 751 755 758
793 791 790 788 786 785 782 781 780 779 780 779 778 777 776 777 777 777 775 768 757 750 749 751 751 750 751 752 753 756 756 752 751 749 750 754 754 754 756 757 760 762 764 765 765 767 765 758 755 761 766 769 773 775 775 777 774 770 769 770 767 764 770 771 763 763 764 763 764 767 772 763 751 751 747 741 743 744 742 742 743 744 745 746 746 747 751 754
791 790 788 787 785 783 781 781 779 779 780 777 777 777 776 777 776 777 775 765 755 749 748 750 750 749 749 751 753 751 751 750 747 746 747 749 750 753 754 753 756 761 761 761 764 763 759 757 760 765 767 767 771 773 772 774 772 767 766 766 767 765 767 767 764 768 771 767 760 765 779 766 744 745 746 739 742 744 742 743 744 743 743 745 746 746 748 752
790 789 787 786 784 782 780 779 778 780 778 776 777 776 777 777 775 777 774 762 751 745 747 749 748 748 748 750 750 749 752 750 743 744 746 747 746 748 753 753 754 757 755 757 763 762 758 759 761 765 768 768 771 771 767 769 772 769 761 759 763 763 764 766 766 772 774 766 758 761 773 766 746 743 742 738 742 742 740 743 742 742 742 743 743 743 746 749
789 788 786 785 783 782 779 778 779 778 775 775 776 776 777 775 775 777 772 763 753 743 744 747 746 747 746 746 747 749 753 748 743 744 745 746 745 746 753 753 755 757 752 758 768 762 756 762 765 765 768 769 770 769 763 765 772 767 758 758 761 761 764 765 766 769 763 758 761 760 762 766 758 746 738 737 742 741 739 741 740 739 739 738 739 740 742 747
788 786 785 784 783 782 781 780 779 777 775 775 775 776 776 774 776 775 769 766 755 741 742 745 745 746 744 745 746 745 746 744 745 746 742 745 746 747 753 750 752 755 752 761 770 759 754 763 766 765 769 769 765 762 758 763 768 761 756 760 760 759 762 761 762 764 759 762 769 758 757 771 764 743 736 739 743 741 738 736 737 736 736 736 737 738 741 745
786 785 784 783 781 781 781 780 779 777 776 775 776 776 774 775 775 769 768 767 751 739 742 743 745 746 744 747 747 744 744 742 744 745 742 745 745 746 751 746 745 752 753 757 759 754 754 758 757 760 765 764 759 755 754 761 763 757 757 761 759 759 760 759 761 758 762 775 773 755 756 770 762 741 737 743 744 741 737 736 738 737 735 736 737 738 742 744
784 783 782 782 780 780 780 779 777 775 775 775 775 774 774 775 771 767 772 765 748 742 742 741 744 744 743 745 745 744 745 742 741 744 744 745 746 745 746 744 743 749 754 755 753 753 754 755 754 755 757 755 752 752 753 757 758 756 759 760 760 760 758 760 759 755 770 781 765 749 752 764 764 745 734 742 746 743 743 743 744 741 738 738 738 739 742 744
782 782 781 781 780 780 779 776 774 774 775 775 774 774 773 770 764 766 769 757 745 744 742 742 744 741 742 744 742 742 744 742 740 744 746 745 747 749 748 749 750 753 759 759 755 753 755 758 757 753 751 751 753 755 756 756 756 760 760 757 761 764 763 766 764 766 780 778 758 748 749 759 767 750 735 740 744 743 747 747 746 746 743 740 739 740 741 744
780 779 779 779 779 779 777 774 773 774 774 774 774 772 769 768 766 764 757 749 750 748 743 746 745 741 742 742 741 740 741 742 740 741 744 744 748 749 747 750 752 759 765 761 757 757 757 756 752 750 750 751 755 758 759 760 759 761 760 759 767 772 775 778 774 774 776 766 756 750 752 761 759 744 737 743 744 744 746 746 746 746 744 741 740 740 741 744
778 776 775 775 775 775 774 773 774 774 773 774 773 767 765 769 767 759 749 748 754 751 746 749 745 741 742 740 739 737 737 740 739 738 738 739 744 745 742 741 741 751 758 755 756 760 759 752 747 751 751 749 753 756 760 762 760 761 760 760 767 771 782 787 776 770 768 761 755 750 756 763 752 740 741 744 745 744 742 742 744 744 743 741 739 740 742 745
774 773 772 772 772 772 771 772 773 773 773 773 769 766 770 771 763 756 753 750 751 750 747 748 746 741 740 738 737 736 737 739 736 737 738 739 744 745 743 742 738 740 747 752 755 756 761 759 748 748 747 745 749 749 747 748 750 753 747 748 756 759 769 779 770 766 765 761 759 759 762 759 752 750 747 744 745 744 743 742 741 742 741 740 739 740 744 747
770 769 769 769 769 769 769 771 772 772 773 770 765 766 771 767 756 753 755 751 752 752 747 745 745 742 738 737 737 734 736 738 735 736 738 739 742 742 740 742 739 738 744 755 757 751 758 756 739 737 740 738 744 743 738 743 748 745 739 746 754 745 748 763 767 765 765 764 762 762 757 744 746 754 748 747 752 748 747 745 742 744 742 742 744 743 746 749
768 769 768 768 768 767 767 769 770 771 771 766 764 765 763 759 754 753 756 756 756 756 750 744 744 743 739 736 737 735 734 735 735 736 737 735 736 735 735 735 735 737 740 748 753 752 757 753 736 738 742 735 737 738 735 744 749 746 747 750 744 733 738 757 769 767 769 773 764 755 751 740 743 756 752 752 758 753 750 748 747 749 748 749 752 751 752 752
769 768 767 767 767 766 766 767 768 771 769 762 762 763 758 756 758 756 757 759 758 757 754 749 746 746 744 739 737 736 735 735 736 736 736 735 734 732 732 731 731 734 734 737 745 746 750 752 738 737 743 737 734 737 736 736 740 746 752 743 733 737 741 748 764 769 770 775 762 751 755 746 745 762 760 754 761 762 755 750 750 752 752 755 758 758 758 757
770 767 766 766 767 766 766 767 768 768 766 762 763 764 760 759 760 759 759 760 759 758 756 752 750 748 747 743 739 737 736 738 737 736 735 737 737 732 730 732 732 731 730 733 741 742 746 753 743 733 739 739 735 742 744 738 735 740 743 734 736 753 754 749 762 769 768 773 766 753 752 744 743 758 762 759 765 767 759 754 752 752 753 755 756 757 759 760
770 765 763 766 767 766 766 768 768 766 764 763 762 763 761 760 760 761 761 760 760 760 756 754 753 750 747 745 742 739 739 739 737 736 735 736 739 737 730 731 733 732 730 732 738 741 744 754 751 737 735 738 738 743 747 743 739 740 741 735 735 746 748 746 751 754 758 768 768 757 752 753 754 757 762 765 766 766 763 761 758 755 755 755 755 757 758 760
767 761 762 766 767 766 767 768 766 763 762 761 760 760 761 761 760 760 761 761 760 758 756 756 754 752 750 746 744 742 741 739 736 737 736 733 739 743 734 731 734 734 734 734 736 738 743 754 755 741 736 741 743 740 739 740 739 742 746 744 741 740 739 742 742 740 746 758 763 761 760 766 768 763 762 766 766 765 765 764 763 761 760 759 759 760 760 761
763 759 763 767 766 767 768 766 763 760 759 760 760 760 762 762 761 760 760 761 760 757 756 757 755 753 752 749 746 744 743 740 735 736 736 731 735 742 738 735 735 734 738 740 739 739 744 752 753 746 741 742 740 735 734 736 735 737 741 738 737 737 740 752 754 741 739 747 752 755 761 771 774 768 765 766 766 765 764 764 765 764 763 763 764 766 767 768
761 760 764 766 766 767 765 761 761 760 758 759 762 762 764 765 763 761 760 761 760 757 757 757 755 754 754 751 747 745 744 741 736 735 737 732 733 739 740 739 736 733 736 739 738 737 741 746 750 748 740 736 736 736 737 739 737 736 737 733 730 731 736 750 757 748 741 743 744 746 757 774 779 771 767 768 767 767 766 765 764 765 767 769 771 774 775 775
758 761 765 766 766 766 763 759 761 761 759 761 764 763 765 765 763 762 761 760 759 758 758 758 755 754 753 751 750 748 746 745 740 738 738 736 737 742 741 740 740 736 734 736 737 740 744 748 751 749 740 733 735 736 736 739 739 738 739 738 736 736 735 739 744 746 745 745 747 749 757 774 780 771 768 771 771 773 774 771 769 771 775 776 778 780 780 780
757 760 764 765 766 765 762 759 759 760 762 764 765 764 765 765 764 763 762 761 759 759 760 758 755 755 754 752 752 750 748 749 745 739 739 739 741 743 741 740 741 737 736 738 737 740 746 748 748 751 751 748 748 746 745 743 741 741 744 746 745 742 740 740 739 743 748 745 746 752 764 778 780 771 769 774 777 781 782 781 780 781 783 782 783 784 784 784
757 760 762 763 765 764 761 760 760 761 764 766 766 765 765 764 764 764 763 762 761 760 761 758 755 756 755 753 754 749 746 750 749 742 741 740 741 743 742 740 740 739 740 740 735 737 746 749 748 752 757 759 759 757 752 745 741 745 749 751 752 749 748 748 744 746 750 746 742 750 766 780 779 772 775 779 782 786 787 786 787 787 787 787 787 788 788 788
755 758 761 763 764 763 762 763 762 761 763 766 766 766 765 763 763 764 764 763 761 761 761 759 756 757 756 755 755 751 745 747 748 745 744 743 744 746 743 741 742 743 746 745 739 739 747 751 752 755 757 759 760 757 751 743 743 750 753 754 756 756 755 752 748 750 751 747 745 746 755 772 780 779 784 788 787 791 792 792 792 793 792 791 791 791 790 790
754 755 758 761 762 762 762 762 761 762 763 765 766 767 766 764 763 764 763 762 761 761 761 759 757 758 759 758 756 754 749 747 748 749 748 746 747 747 745 743 745 748 749 745 741 743 748 755 760 760 758 759 758 757 753 747 747 755 758 759 759 758 758 756 756 759 757 754 757 753 750 767 785 790 794 795 795 797 798 797 797 797 796 795 794 793 792 793
755 756 757 759 760 760 760 761 761 764 765 765 767 768 766 763 763 764 764 761 760 761 761 761 760 758 758 759 758 756 753 751 753 754 752 750 749 749 748 746 747 750 749 743 743 744 746 756 767 767 765 765 761 757 754 752 756 760 763 765 765 761 762 763 765 765 760 759 763 760 758 774 792 799 801 801 801 802 803 802 802 801 799 798 797 796 797 798
756 757 759 761 760 759 763 765 764 764 765 766 767 768 766 764 764 765 763 762 761 760 761 763 762 758 757 757 757 758 758 759 760 760 757 755 754 754 758 760 757 754 751 749 751 749 748 759 767 767 772 778 774 765 759 756 761 766 768 769 768 766 767 770 772 770 765 764 766 768 777 793 802 804 804 805 805 806 806 805 804 804 804 802 801 801 802 803
755 755 759 761 761 762 765 767 765 763 764 766 766 767 767 765 765 766 764 763 765 763 761 763 763 760 758 757 757 760 764 764 765 765 764 761 757 755 761 768 767 761 757 759 761 756 754 761 764 762 771 782 781 773 765 760 763 771 777 779 774 771 772 777 782 779 772 771 776 779 788 802 806 805 806 808 807 807 809 808 807 808 808 807 807 806 806 806
757 757 758 757 760 766 766 765 765 761 761 764 765 766 768 766 766 767 765 763 764 764 763 763 763 761 759 759 760 762 765 765 765 765 765 764 761 759 760 764 766 765 763 765 769 764 758 761 765 764 767 778 784 778 770 766 766 772 786 795 790 784 782 785 790 789 781 780 783 781 784 798 807 808 808 809 809 811 813 812 811 812 812 811 812 812 811 811
759 759 757 754 760 767 765 763 764 762 762 767 769 768 769 766 765 767 767 764 762 763 763 764 764 762 760 761 762 763 764 764 763 763 763 764 764 762 762 763 766 769 770 772 774 769 762 762 764 761 763 774 782 781 777 773 769 776 796 809 806 798 792 789 791 795 795 790 785 781 786 799 807 808 810 812 812 815 817 816 816 816 816 815 815 815 815 815
Wind_Speed
8 8 8 8 8 8 8 8 8 8 8 8 8 8 8 8 8 8 8 8 8 8 9 8 9 9 9 10 11 11 13 13 9 9 9 4 2 6 5 4 11 15 17 17 18 16 14 12 12 12 10 7 6 5 7 6 4 5 5 6 6 6 3 2 1 2 3 3 6 8 7 8 9 7 5 3 1 2 4 5 4 5 0 2 6 16 24 24
8 8 8 8 8 9 9 8 8 8 8 8 8 8 8 8 8 8 8 9 9 9 9 9 9 9 9 10 11 12 13 11 11 10 9 2 6 4 4 7 13 18 20 18 19 18 14 13 13 13 9 6 5 6 8 6 6 7 5 7 7 2 3 4 3 4 4 5 7 8 7 8 8 6 6 5 2 1 5 6 7 8 4 4 10 17 21 22
9 9 8 8 8 9 9 9 9 8 8 8 8 8 8 8 8 9 9 9 9 9 9 9 9 9 8 9 10 12 12 11 9 5 6 2 9 4 7 11 15 21 19 15 17 15 12 12 14 13 8 5 5 6 8 7 7 7 5 7 4 1 3 3 2 3 4 7 8 8 8 8 6 5 6 7 5 4 5 6 8 9 8 8 12 16 19 20
9 9 9 9 9 9 9 9 9 9 8 8 8 8 8 8 8 9 9 9 9 10 10 9 9 9 7 7 9 9 9 10 3 6 3 5 10 4 10 14 18 21 14 9 12 10 8 11 14 11 7 6 5 6 8 7 7 5 6 7 1 2 1 3 2 3 5 6 8 9 9 8 6 7 7 7 6 4 4 4 7 8 10 12 14 16 17 18
9 9 9 9 9 9 10 10 9 9 9 9 9 8 9 8 8 9 9 10 10 10 10 10 10 9 7 6 8 7 7 5 3 4 2 8 8 2 12 16 19 19 11 9 10 8 8 11 11 9 6 6 6 7 8 9 7 4 7 8 2 1 3 2 0 4 6 7 8 9 9 8 9 9 7 7 7 1 1 1 5 7 9 12 14 16 16 16
9 9 9 9 10 10 10 10 10 10 10 9 9 9 9 9 9 9 9 10 10 10 10 10 10 9 6 6 5 5 7 2 3 2 7 9 3 7 14 17 19 16 11 11 11 10 10 11 10 8 7 6 8 8 7 10 9 6 7 7 5 5 6 3 5 6 6 9 9 9 8 9 11 9 5 6 8 4 4 2 3 6 9 11 13 14 14 15
10 10 10 10 10 10 10 11 11 11 11 10 10 9 9 9 9 9 9 10 10 10 11 11 10 8 6 5 3 5 7 3 4 5 9 5 5 12 16 20 18 13 12 12 12 10 10 11 10 8 7 6 8 9 7 9 10 9 6 5 6 6 8 8 8 7 8 9 9 10 9 10 12 8 6 7 8 5 4 3 3 7 10 12 13 13 13 15
10 10 10 10 11 11 11 11 11 11 11 11 11 10 10 10 10 9 9 10 10 11 11 10 9 7 6 5 5 6 5 1 4 6 6 3 11 14 19 20 14 11 12 11 11 10 9 11 10 7 7 5 6 8 8 9 10 11 9 5 6 6 7 8 8 8 9 9 8 9 10 11 10 8 10 10 5 2 3 3 5 9 11 12 13 14 13 14
10 11 10 11 11 11 11 12 12 12 12 12 12 11 11 11 11 10 10 10 11 11 11 10 8 6 5 4 7 6 1 5 5 5 2 9 14 17 20 18 13 9 10 9 8 9 8 9 9 6 5 2 5 8 8 9 6 8 11 8 7 8 7 8 9 9 9 7 7 10 11 10 6 6 9 6 0 0 1 3 7 11 12 12 13 14 14 14
11 11 11 11 11 11 12 12 12 13 13 13 12 12 12 11 11 11 11 11 11 11 10 10 8 4 4 5 8 4 5 5 4 7 6 12 16 18 17 14 14 10 8 8 7 9 7 5 6 4 4 2 6 7 9 8 1 1 7 7 8 9 8 8 9 9 8 8 10 11 10 9 5 4 5 3 4 2 3 6 9 11 11 12 14 13 13 14
12 11 11 11 11 12 12 12 12 13 13 13 13 13 12 12 12 12 13 12 12 11 10 9 5 2 5 6 7 3 6 5 3 6 6 13 17 15 12 13 14 9 7 7 7 8 5 3 5 4 2 3 6 7 9 7 2 2 4 6 8 9 7 8 9 8 7 7 8 8 9 9 7 8 5 3 4 3 4 7 10 10 10 13 14 13 13 13
12 12 11 11 11 11 12 12 13 13 14 14 14 14 13 13 14 14 14 14 13 11 9 7 2 1 6 7 6 2 4 5 5 6 8 12 14 10 8 11 11 7 6 5 5 7 5 4 8 7 1 4 6 5 6 5 3 5 5 7 7 8 9 9 8 6 6 7 4 5 8 9 11 10 3 3 3 4 5 7 9 10 10 12 13 13 12 12
11 12 12 11 11 11 12 13 13 14 14 14 15 15 14 14 15 15 15 13 11 9 7 3 1 2 6 5 2 3 5 6 7 9 10 11 11 8 6 7 8 6 4 3 2 6 6 4 8 7 2 5 5 3 2 5 5 5 5 6 5 6 7 5 4 5 6 5 2 5 7 7 12 8 4 4 4 5 6 7 8 10 11 11 11 11 12 13
11 12 12 12 11 12 12 13 13 14 14 15 15 15 15 15 15 13 12 11 8 7 5 4 2 3 5 4 3 6 8 7 7 10 11 11 10 7 5 6 7 6 4 3 1 3 6 5 7 6 3 5 1 3 4 5 5 4 4 5 5 5 3 6 2 4 5 3 3 8 6 4 9 6 5 3 5 6 7 8 8 9 10 11 11 12 12 13
12 12 12 12 12 12 12 13 14 14 15 16 15 15 15 13 11 10 8 6 4 6 5 5 4 4 5 4 3 4 8 8 9 13 13 12 11 8 8 8 7 7 5 3 2 2 5 7 7 6 5 3 2 5 6 4 5 5 4 4 5 4 2 6 3 2 1 3 5 9 7 6 6 6 5 3 5 6 7 9 10 10 11 11 10 12 12 12
12 12 12 12 12 12 12 13 14 15 16 16 15 15 13 8 6 6 3 1 2 6 7 5 5 6 6 2 5 3 7 7 7 11 13 14 13 9 10 10 8 8 6 4 3 2 6 9 6 4 4 5 5 7 5 4 5 5 5 4 3 4 2 4 6 3 2 0 5 7 7 7 4 5 3 4 5 7 7 9 11 11 11 11 9 11 11 11
13 13 13 13 13 13 13 14 14 15 16 16 16 13 7 3 2 3 4 5 5 6 6 3 3 6 4 1 4 4 7 6 5 7 9 12 12 10 12 10 9 9 8 6 4 4 8 9 4 3 4 6 6 5 5 6 6 6 6 4 3 4 3 2 5 5 2 3 4 6 7 8 3 3 3 4 5 6 7 9 11 10 10 10 9 10 12 12
13 14 14 14 14 13 13 14 14 16 16 16 14 8 3 2 1 1 4 6 5 5 5 3 3 5 3 4 3 4 8 6 5 6 7 9 11 12 12 9 9 11 9 7 6 6 8 7 5 5 6 6 6 7 7 4 3 4 5 4 4 4 5 4 2 3 2 5 6 6 7 10 8 3 3 4 5 6 7 7 9 10 10 10 9 11 12 13
14 14 14 14 14 14 14 14 15 15 16 16 11 4 2 1 1 3 4 5 5 4 2 3 6 3 1 4 3 4 5 2 2 5 8 11 13 12 10 9 11 11 9 7 7 7 6 5 6 7 7 9 9 10 8 1 2 1 2 3 3 3 4 3 2 1 3 6 8 9 8 9 9 6 5 5 5 6 6 7 8 9 10 10 10 10 12 13
14 14 14 14 13 14 14 15 15 15 17 16 8 3 3 2 4 4 5 6 8 8 8 4 8 6 3 2 3 2 4 3 3 6 10 12 15 13 10 9 10 9 7 7 7 7 6 6 8 9 9 11 12 10 7 2 1 2 3 4 5 5 4 3 3 4 3 6 8 9 10 10 10 8 6 5 6 7 8 9 10 11 11 10 11 12 12 12
14 14 14 14 14 15 14 15 15 16 16 10 5 5 2 3 3 1 1 6 10 11 12 9 10 10 5 1 2 1 2 5 5 6 10 13 15 13 10 10 10 8 8 7 6 6 6 7 9 11 9 7 8 8 5 3 4 6 6 6 6 7 4 2 4 5 3 5 8 10 10 11 11 10 6 6 7 9 10 11 12 13 12 11 11 12 12 10
14 15 15 14 15 15 15 15 15 15 11 3 4 5 2 5 4 4 4 6 7 9 11 10 10 9 6 6 5 2 3 5 7 8 10 12 15 12 10 12 11 8 8 7 5 5 7 9 11 9 5 4 6 6 6 6 6 7 6 6 6 4 2 3 5 4 3 4 7 8 9 10 11 12 9 7 8 9 10 12 12 12 12 12 12 12 12 11
14 15 15 15 15 16 16 15 14 11 4 1 5 4 2 5 5 4 4 6 7 6 7 7 8 7 8 10 10 8 8 10 9 10 13 13 12 10 11 13 12 9 10 10 8 7 7 8 9 8 6 7 7 6 7 6 6 7 6 6 6 2 1 4 5 4 3 5 7 7 7 8 10 12 11 10 10 10 11 13 13 12 12 13 13 13 12 14
14 15 15 15 15 16 15 14 11 4 1 5 8 5 2 4 5 4 4 5 6 3 3 3 4 5 5 3 7 13 12 10 10 10 16 15 10 9 11 13 13 10 9 13 13 10 6 2 5 9 9 9 8 8 9 7 6 8 8 8 7 4 4 6 4 3 5 8 8 7 7 8 11 12 12 10 10 11 11 12 12 12 12 12 13 13 13 13
14 14 15 15 15 16 14 10 3 1 5 8 6 3 1 4 6 4 4 4 4 3 3 4 3 3 3 3 7 11 8 9 11 9 15 17 12 9 9 9 10 10 12 14 12 11 6 5 6 9 10 11 10 9 10 9 6 7 9 9 10 9 9 9 8 5 6 7 8 8 7 7 9 12 12 9 9 11 11 12 13 13 13 12 13 14 12 12
14 14 15 14 16 16 10 2 1 4 8 4 3 3 2 6 6 3 4 4 3 3 4 5 3 4 5 5 8 7 6 7 8 8 13 16 14 9 7 7 6 9 10 11 8 7 5 8 8 9 8 10 10 8 10 9 7 6 4 6 9 10 10 9 7 6 6 3 5 7 8 6 5 8 10 10 10 13 12 12 13 12 13 14 14 14 13 12
14 14 14 13 14 14 7 2 5 7 5 1 4 0 4 8 5 3 4 4 2 2 3 3 2 3 2 4 9 7 3 4 6 10 12 14 14 9 8 9 7 6 5 6 5 5 6 9 9 9 8 9 8 7 8 9 8 3 4 2 6 7 8 8 8 8 5 2 4 8 8 6 6 6 7 9 11 13 13 13 13 13 14 16 15 15 13 12
14 14 14 13 13 11 6 7 8 6 2 3 2 3 7 7 3 4 5 3 2 1 1 3 3 2 2 4 10 7 1 2 5 9 11 14 13 9 10 11 10 9 8 7 5 4 9 12 11 12 10 7 7 6 7 9 9 2 5 1 4 4 6 7 7 7 4 3 5 9 8 6 8 7 6 8 11 14 14 13 12 12 15 15 15 15 13 11
15 14 13 13 13 9 5 8 9 5 1 0 2 7 7 3 4 4 4 2 2 2 1 2 3 3 3 4 9 9 4 3 1 5 10 13 10 6 7 9 11 11 11 11 8 3 6 7 8 12 11 8 10 9 7 10 8 1 3 3 3 3 5 6 7 6 4 4 8 9 9 8 7 6 7 8 10 10 7 5 5 7 10 12 13 12 11 10
15 15 13 13 11 7 4 8 11 8 4 3 5 8 4 4 4 4 4 2 1 3 2 2 3 2 1 3 7 9 8 3 3 7 10 10 10 7 3 4 8 8 9 11 10 1 5 2 2 8 9 7 8 7 6 10 6 1 3 6 5 5 5 5 5 5 4 7 9 8 10 8 8 6 5 4 2 3 3 2 3 4 5 8 10 11 11 9
16 15 13 11 8 5 4 4 4 5 5 4 6 5 4 4 3 4 3 1 1 3 3 3 2 1 3 3 3 7 10 6 5 9 10 9 11 9 5 4 6 7 7 8 9 6 6 5 3 6 7 5 5 4 5 7 6 4 6 7 5 5 5 5 6 5 7 7 5 5 8 9 9 6 0 4 4 4 5 4 4 4 3 5 8 9 9 8
18 16 14 13 10 9 9 3 2 2 3 5 6 4 5 4 4 4 2 1 1 1 2 1 1 4 4 3 2 5 8 7 7 10 10 10 10 9 10 9 7 8 7 7 8 7 7 8 8 8 7 7 7 6 6 6 7 7 7 6 7 6 6 7 7 6 8 5 4 4 4 7 9 4 4 6 5 5 5 5 6 4 3 3 7 9 8 7
19 18 17 14 11 14 15 9 6 7 6 6 4 5 5 4 4 2 1 1 1 3 3 2 5 7 6 4 3 4 6 7 9 10 10 11 10 10 13 11 11 10 6 7 8 6 7 9 11 11 8 9 10 7 7 7 8 9 8 7 8 6 6 8 7 7 8 4 5 3 3 6 9 1 6 6 6 6 5 5 5 2 2 3 6 8 7 7
22 19 16 11 10 15 14 10 9 8 5 5 5 5 5 5 1 1 1 0 3 3 3 4 6 6 4 2 2 2 4 6 10 10 9 11 9 9 11 10 13 11 4 6 6 6 8 6 9 12 8 10 14 11 8 6 7 10 9 8 8 7 6 7 6 6 7 4 4 4 4 7 7 1 6 5 6 7 6 6 5 4 4 5 6 8 8 8
20 13 9 6 8 11 12 11 8 5 4 5 6 6 6 5 1 1 1 1 3 4 5 4 6 6 4 3 2 1 2 3 10 10 8 10 9 9 10 9 13 12 6 6 4 4 8 5 7 10 5 9 16 14 12 8 5 7 6 7 8 7 6 4 2 2 3 4 3 5 5 4 1 4 6 6 6 7 7 7 7 7 7 6 6 6 7 8
14 6 4 4 4 4 8 12 9 6 5 5 7 7 5 1 1 1 2 3 3 5 7 5 3 4 4 4 3 2 0 2 9 9 6 9 10 10 10 9 12 14 9 6 4 4 7 3 7 9 5 9 12 11 13 10 5 4 6 8 5 4 6 4 1 2 0 6 4 4 6 4 5 4 4 5 5 6 7 7 8 8 8 8 7 6 5 5
9 5 1 3 2 2 7 11 11 8 5 5 7 4 2 1 2 2 3 3 2 4 7 4 1 2 2 3 3 3 2 4 8 8 6 8 7 8 10 8 10 14 13 8 5 4 5 2 7 9 9 9 4 4 9 10 6 4 5 5 3 1 5 5 4 3 5 7 5 4 7 7 5 3 2 2 5 7 6 7 8 8 8 8 7 6 6 6
8 5 1 4 3 2 8 11 11 7 4 5 5 1 1 1 1 2 2 3 2 3 5 3 1 2 1 2 1 2 0 4 8 8 7 7 4 4 9 8 9 13 14 11 6 3 4 5 5 6 6 8 5 4 7 8 9 7 4 2 3 4 5 5 5 5 6 7 5 5 7 7 4 2 3 1 4 5 5 6 7 7 7 6 5 6 7 8
6 4 3 5 3 5 10 10 8 5 4 6 5 2 1 2 2 0 2 2 2 3 4 2 1 1 2 2 2 1 2 2 6 7 7 7 4 2 4 5 7 11 12 11 7 4 4 5 3 5 5 7 7 7 7 8 10 8 6 5 4 4 4 4 5 5 6 6 5 5 5 2 2 2 3 2 4 4 5 6 6 8 8 7 6 5 5 7
5 4 3 4 2 8 8 6 5 4 4 4 3 2 2 1 2 2 2 2 3 3 2 2 2 2 2 3 2 1 2 3 3 6 5 5 6 3 1 2 5 7 8 10 9 5 4 4 3 5 7 7 6 6 6 6 7 8 7 7 6 4 3 4 4 5 5 5 5 5 4 2 4 3 1 3 4 3 4 5 5 6 7 7 7 6 5 5
4 4 3 3 4 7 4 4 4 3 3 2 1 2 2 1 2 3 2 3 4 3 3 4 4 4 4 3 1 1 3 3 3 5 5 6 7 4 1 1 3 5 6 8 9 7 5 5 6 4 6 7 4 3 2 3 3 5 7 8 8 7 5 6 6 6 5 6 4 5 3 3 4 2 1 2 2 2 2 3 4 5 6 7 8 9 10 9
4 3 3 3 5 4 4 3 2 1 2 1 0 1 1 2 2 2 2 3 4 4 3 4 5 5 4 4 2 3 4 4 3 3 5 5 3 1 3 3 3 4 4 6 7 4 2 3 6 7 6 4 4 7 3 2 2 4 5 5 6 6 7 7 6 4 5 5 4 5 4 2 2 1 1 2 1 2 2 2 3 5 7 9 11 11 12 11
3 2 3 4 4 2 5 3 3 2 1 2 1 0 0 2 2 2 2 3 4 3 3 4 4 4 3 2 3 4 4 3 3 2 3 3 2 5 5 3 2 4 4 4 5 4 2 4 6 7 6 3 4 5 4 1 2 5 3 2 4 5 5 6 4 2 4 5 4 6 5 3 2 1 2 3 4 6 6 6 6 7 8 10 10 11 11 11
4 3 4 5 1 4 4 2 2 2 2 2 1 2 2 2 3 2 2 2 2 2 3 4 3 2 2 2 4 6 4 3 3 1 2 2 3 6 6 3 2 4 3 2 3 5 4 5 6 6 7 7 6 7 6 4 4 3 2 1 3 4 4 5 4 4 6 6 5 6 3 3 3 2 5 7 8 9 9 9 9 9 8 8 9 9 10 10
4 3 4 4 2 3 1 1 1 0 3 2 2 2 1 2 1 2 3 2 1 2 3 3 2 3 4 4 5 6 4 3 3 1 1 1 3 5 6 5 1 0 2 3 2 6 4 3 4 6 7 7 7 6 5 5 4 3 2 3 4 3 2 4 5 6 7 6 7 6 2 4 5 5 7 8 8 9 8 8 9 8 7 7 8 8 8 9
4 3 3 4 2 1 1 1 2 1 2 2 2 1 0 1 3 1 3 2 1 2 3 2 3 4 4 4 6 6 4 3 3 3 1 0 3 4 6 5 5 7 9 6 1 4 2 1 1 3 2 2 2 2 3 1 4 4 3 4 5 4 2 4 5 5 3 3 6 4 7 10 8 6 8 7 7 8 7 7 8 8 7 7 7 8 8 8
2 2 3 3 3 2 2 2 1 0 1 1 1 1 0 0 2 3 2 1 1 1 2 1 2 3 3 4 5 5 3 4 4 2 2 2 2 3 3 4 7 11 11 3 1 1 3 3 2 4 5 5 4 3 4 2 4 4 5 5 6 6 2 3 3 3 4 3 4 3 11 13 8 7 7 7 7 7 7 7 7 7 7 7 7 8 10 10
1 1 2 1 1 2 2 2 2 2 2 1 0 0 1 1 2 2 1 1 1 1 2 2 1 3 2 3 4 4 3 4 2 1 2 3 2 2 1 4 7 10 8 1 1 2 4 3 1 3 6 9 7 3 4 6 7 7 8 7 7 8 5 3 3 5 6 2 2 4 10 11 8 7 6 6 6 6 6 7 6 6 7 7 7 9 11 11
0 2 2 2 1 2 3 3 2 2 2 1 1 1 1 2 2 2 1 2 3 1 1 1 1 4 3 1 3 2 2 1 1 4 3 3 3 1 1 3 6 9 8 6 4 4 3 2 4 5 6 7 7 4 2 6 9 9 10 9 7 7 7 7 6 6 6 5 5 8 12 11 7 5 6 6 5 5 6 6 7 7 8 8 8 10 10 10
1 2 2 1 2 3 4 3 2 3 2 0 1 2 1 1 3 2 0 1 1 1 1 0 2 3 4 4 1 2 5 4 2 3 4 4 3 2 2 1 3 6 7 7 6 6 5 3 7 7 6 5 2 2 0 5 9 11 11 10 8 5 6 6 6 5 4 5 7 9 11 8 4 4 6 5 5 6 7 7 8 8 8 8 9 10 10 10
2 2 0 3 4 2 2 3 1 2 2 1 1 2 1 1 3 2 0 0 1 2 2 2 3 1 1 3 4 5 6 5 3 2 3 4 4 4 2 2 2 4 4 6 4 7 5 3 7 5 4 5 3 3 3 4 8 11 11 12 10 7 4 5 5 5 4 4 5 6 5 4 4 5 6 6 7 8 8 8 7 7 8 8 9 9 9 10
0 1 2 3 3 2 2 3 2 2 1 2 1 1 0 2 3 1 1 2 1 2 3 3 3 2 3 2 4 6 5 6 5 1 1 1 3 4 4 6 5 3 3 3 2 4 3 3 6 6 5 6 6 5 3 3 4 4 7 9 9 8 6 3 4 6 7 3 2 2 3 5 6 6 6 7 8 9 8 8 7 7 8 9 9 10 10 10
Wind_Direction
354 354 352 346 343 339 338 340 342 342 340 339 337 335 332 330 327 322 322 317 319 318 317 318 317 325 328 325 322 316 320 315 294 265 246 260 296 244 247 201 181 168 161 157 161 163 161 172 166 170 181 174 200 175 175 202 196 208 222 228 236 233 229 76 85 17 355 10 7 348 355 339 341 7 8 311 233 93 186 186 170 173 39 352 97 121 140 146
354 353 350 346 344 340 339 338 339 341 338 338 335 333 332 329 328 323 321 317 315 313 314 315 321 331 328 327 323 320 326 303 275 257 228 275 349 284 208 178 179 167 158 163 171 170 168 172 166 176 187 174 184 164 172 188 197 221 227 232 240 254 37 48 41 34 351 338 342 332 340 330 331 349 346 316 284 171 208 187 181 182 157 142 132 136 142 145
354 351 349 346 345 341 338 337 338 339 335 334 332 331 330 328 327 322 318 315 314 313 313 317 324 332 329 326 322 325 325 289 264 220 189 324 345 308 189 172 173 167 163 176 178 177 180 170 169 180 188 184 183 175 187 182 195 225 234 241 241 71 50 70 74 27 345 334 326 321 326 314 326 337 322 320 304 238 219 189 188 193 169 158 148 143 145 149
354 350 349 345 344 342 339 338 337 335 332 331 331 329 328 328 325 321 318 314 314 313 314 319 325 333 332 322 323 329 307 271 232 119 148 312 332 301 184 169 168 168 168 186 183 185 185 170 175 186 194 189 174 186 196 179 191 217 225 252 330 75 214 130 110 336 330 325 315 311 310 304 330 323 299 310 294 217 200 198 197 201 172 162 155 151 153 153
353 350 349 346 345 343 340 338 335 332 331 330 330 328 327 325 323 322 320 316 314 313 315 319 324 335 330 320 327 318 278 258 116 104 293 310 324 214 176 165 164 168 171 182 176 177 177 172 179 188 203 191 169 189 200 191 207 232 225 249 317 269 249 133 261 312 319 307 301 299 305 318 320 303 294 305 295 263 72 231 203 197 169 163 161 157 156 154
349 349 349 347 345 342 340 336 331 330 329 330 327 326 325 323 323 322 318 315 312 312 315 317 326 338 332 322 322 281 263 287 69 326 305 316 315 162 167 159 160 168 171 172 168 173 174 174 182 190 205 195 184 194 198 193 210 239 225 229 234 251 265 271 286 294 301 294 294 298 314 321 301 297 314 304 292 316 354 318 204 176 161 161 159 155 154 154
347 348 347 346 344 342 339 334 331 330 329 327 324 323 322 321 319 316 315 312 311 313 312 314 327 342 341 322 290 242 255 307 43 317 308 308 153 155 160 152 153 162 168 168 166 175 172 179 192 195 204 199 194 197 196 197 208 235 237 219 232 250 261 271 282 284 288 288 290 295 306 300 289 303 318 298 292 299 308 282 196 152 151 156 154 153 155 155
346 345 345 344 342 340 338 334 332 330 326 323 322 322 320 319 316 313 314 311 311 312 310 314 327 346 350 319 278 251 246 33 40 321 308 153 148 154 154 150 154 161 174 177 170 181 179 188 198 197 212 201 191 195 191 206 212 229 244 244 243 250 256 268 274 275 280 281 284 286 290 285 288 312 298 288 295 295 288 238 171 145 149 153 149 152 156 156
343 343 342 341 339 338 336 334 331 327 324 321 320 320 320 318 315 315 313 309 308 307 309 314 326 353 350 299 277 272 149 91 47 15 84 143 147 152 153 157 169 168 178 183 182 195 188 197 200 200 241 206 184 195 188 212 214 217 237 248 256 258 263 271 272 275 275 275 282 281 281 277 292 323 285 272 15 202 234 182 149 146 153 149 147 152 155 157
341 340 339 338 336 335 335 331 328 326 323 320 319 319 318 315 313 312 308 304 302 301 303 307 325 359 316 278 267 269 98 105 65 55 107 148 144 148 156 165 173 174 178 179 196 203 195 217 200 201 277 221 191 196 190 216 239 171 236 252 262 267 269 272 273 274 274 270 268 270 277 277 286 292 258 129 106 196 174 152 145 150 154 147 149 153 156 160
337 337 335 335 333 332 332 329 327 325 322 320 318 317 315 313 310 307 303 300 296 294 294 296 315 337 283 271 264 271 96 129 129 72 109 147 147 149 160 169 172 179 176 174 201 202 206 237 192 199 254 174 183 191 195 219 284 252 251 261 254 259 259 256 262 263 265 263 256 262 276 274 263 252 245 96 110 179 162 152 147 148 149 148 154 155 158 161
333 332 332 330 331 330 328 327 324 322 321 319 317 316 314 312 309 305 301 296 289 283 281 281 300 322 276 259 254 255 115 150 158 121 124 147 154 145 148 169 178 188 181 184 202 199 214 226 200 211 217 160 175 178 192 204 250 247 250 262 247 245 247 239 247 258 258 259 260 266 267 250 232 229 200 100 139 170 166 158 148 147 150 153 154 154 159 161
331 328 328 328 329 328 326 325 322 320 320 319 318 315 314 315 311 306 300 291 284 274 263 243 177 273 268 264 228 187 165 158 161 151 145 153 159 151 152 177 193 206 216 217 186 192 210 212 213 221 234 211 181 110 154 184 231 239 224 251 255 242 235 205 224 251 244 247 255 249 255 224 206 199 108 121 174 178 175 163 154 152 154 159 156 157 166 168
328 325 325 326 328 326 326 323 320 320 319 320 318 315 317 317 310 304 300 291 276 253 220 167 181 233 257 273 125 178 189 162 175 176 164 166 168 175 186 190 201 207 220 221 127 177 199 200 223 227 223 244 184 123 190 190 214 229 206 225 247 246 177 124 162 247 229 172 188 226 248 222 181 136 80 153 179 182 182 167 163 162 164 168 164 170 178 177
326 323 322 324 326 325 325 322 320 319 319 321 317 317 320 316 310 311 312 303 263 215 176 154 198 223 256 251 142 186 204 187 208 203 191 189 190 198 189 180 189 190 193 194 146 160 191 191 212 213 187 217 232 196 207 198 199 215 227 207 208 234 155 129 159 253 308 106 182 219 239 233 180 102 78 150 178 190 189 174 170 175 178 177 174 182 187 183
325 322 322 324 326 326 326 323 321 319 319 319 316 320 320 313 319 325 340 49 141 153 159 173 203 230 277 248 125 155 190 188 206 201 202 203 205 200 169 161 164 173 181 176 168 163 181 189 203 228 193 189 213 213 210 210 203 204 234 229 183 218 209 153 161 171 315 27 187 219 248 243 180 113 111 151 183 196 198 188 178 181 185 183 186 192 192 187
324 323 323 325 326 327 326 324 322 321 321 318 319 324 312 290 337 10 79 108 117 138 178 225 194 224 271 140 152 171 163 158 139 153 184 198 202 178 152 155 158 164 168 161 176 169 175 188 192 221 217 211 215 218 219 218 211 191 212 239 203 224 256 185 154 156 249 272 218 221 248 258 229 129 141 165 189 204 210 200 184 185 189 187 191 200 197 189
324 323 323 325 326 326 326 325 322 321 320 318 323 328 283 241 66 60 100 121 136 161 206 239 207 231 230 180 191 143 133 138 136 144 159 170 182 170 157 160 152 157 162 159 177 176 178 192 197 202 204 212 212 210 222 230 232 201 198 228 213 212 236 240 185 135 227 268 251 238 239 249 243 202 182 187 192 211 217 209 199 195 192 191 198 207 203 193
323 322 323 324 324 325 326 324 322 321 320 322 332 337 235 220 211 206 178 168 178 205 247 175 198 271 37 153 148 124 136 148 187 172 155 154 164 169 167 160 154 166 175 169 174 178 185 192 201 213 204 204 208 213 227 287 3 249 209 250 246 220 219 227 270 312 301 282 259 249 247 247 237 208 193 192 195 213 215 210 211 208 199 197 204 211 210 201
323 322 321 322 324 324 324 322 322 320 320 324 328 270 225 233 230 195 181 210 222 256 292 248 221 267 299 162 131 162 200 214 222 166 152 158 161 164 167 162 167 185 197 184 163 167 198 205 202 215 216 210 207 214 238 280 311 270 252 250 249 249 241 197 235 264 286 281 261 248 250 252 248 231 199 185 205 215 213 211 210 212 209 204 207 212 215 208
323 322 322 323 324 323 323 323 321 319 321 323 300 257 273 341 308 331 328 245 233 246 267 261 248 260 267 197 102 77 199 203 208 160 152 165 167 169 171 172 184 196 200 184 145 148 202 220 216 219 225 214 196 200 225 239 238 248 250 253 247 246 247 199 242 269 256 260 260 251 252 249 248 245 214 190 220 224 219 218 213 212 212 211 212 214 218 212
324 323 323 323 323 323 323 322 317 320 328 323 265 274 349 25 7 352 324 282 262 246 250 253 250 253 250 235 227 281 296 234 206 167 158 172 181 183 173 181 201 192 175 174 159 171 203 227 227 216 201 173 174 191 205 220 232 239 243 253 254 249 262 226 226 244 225 241 256 252 255 253 249 249 234 212 228 236 230 227 223 214 212 214 214 213 214 211
324 324 324 323 325 323 321 319 319 322 330 244 281 287 18 29 9 331 278 283 285 242 232 241 238 237 230 233 224 213 236 237 218 183 168 179 194 192 178 187 205 193 173 189 200 198 205 226 219 187 162 172 177 186 200 216 229 233 239 247 248 228 248 236 190 180 221 252 269 276 273 263 254 250 246 233 232 241 238 234 231 219 215 216 215 213 208 207
325 325 323 325 325 321 320 323 323 314 244 286 284 273 334 358 353 328 265 273 281 232 205 217 232 238 222 222 194 195 215 225 223 191 170 182 190 184 192 195 201 201 192 201 211 219 220 172 165 172 177 194 196 192 206 226 232 230 235 248 261 254 255 264 248 242 260 248 246 263 269 257 244 239 240 228 217 231 238 235 231 222 219 220 219 219 211 209
326 324 324 327 325 325 327 328 332 193 291 294 266 220 347 341 341 319 267 267 248 184 157 172 193 202 162 137 171 190 215 219 223 195 171 189 190 174 195 199 201 210 205 204 212 230 227 117 145 189 190 203 209 206 213 225 242 237 223 234 257 263 260 262 258 257 264 239 204 217 249 246 226 226 231 217 202 220 225 225 228 222 217 216 221 222 212 211
325 323 326 327 327 332 336 335 40 313 298 284 159 129 14 328 322 283 258 269 211 153 149 180 182 146 151 164 168 182 211 206 211 190 177 196 198 187 195 185 203 227 211 201 210 243 219 146 169 195 189 204 217 223 216 214 244 250 201 216 243 253 253 250 240 226 249 253 157 196 247 254 216 215 220 212 213 220 214 216 226 223 217 215 217 219 211 208
324 323 325 327 331 339 344 325 327 310 290 127 123 229 326 319 303 228 243 246 191 129 139 166 128 121 145 166 169 183 189 137 164 181 187 198 193 196 210 185 193 226 195 180 206 225 201 177 183 195 199 209 216 222 203 200 238 242 105 176 241 241 235 229 225 222 244 294 153 197 236 261 250 227 207 207 221 227 219 219 224 222 221 217 215 216 211 206
322 322 325 326 326 328 313 296 306 296 288 83 124 293 319 313 250 207 254 240 146 110 141 114 99 129 116 157 187 209 339 63 177 175 178 192 190 196 217 205 199 196 169 183 210 167 182 197 198 205 217 221 221 226 191 197 235 225 98 204 262 248 233 220 219 223 231 258 222 205 212 248 257 231 204 209 228 233 229 229 230 229 226 222 218 213 206 201
321 322 323 322 322 321 290 270 273 265 261 83 300 320 321 278 209 221 261 254 150 138 103 116 141 163 135 160 202 223 256 292 219 142 159 183 197 215 230 223 212 192 177 204 233 137 160 209 215 212 219 222 228 232 203 204 227 170 117 234 248 230 227 215 220 225 204 233 246 212 197 233 258 233 207 211 232 244 243 245 262 257 240 227 220 212 203 201
320 319 320 320 323 327 289 255 254 252 248 265 312 328 297 211 217 227 217 235 162 126 121 160 159 181 224 203 202 205 219 242 90 141 164 172 189 211 253 244 219 195 181 211 237 179 114 125 244 223 222 231 235 227 207 216 222 151 195 217 206 195 201 203 222 235 216 228 243 214 195 228 262 250 221 194 227 313 349 335 328 312 259 227 214 207 201 199
316 314 315 311 306 306 286 260 246 224 216 280 329 314 235 202 241 238 178 172 269 129 149 174 156 281 297 281 205 180 201 215 144 158 169 166 181 195 196 193 202 199 190 210 228 212 178 182 203 215 220 238 242 202 191 216 215 216 230 222 203 189 187 205 210 217 234 235 226 199 200 229 251 252 245 69 57 17 360 333 323 322 275 219 201 196 189 185
313 309 304 292 275 258 250 239 77 138 217 315 325 256 217 199 225 233 156 161 240 97 90 91 343 319 311 287 211 174 191 197 175 174 177 177 181 190 196 189 180 193 202 203 205 203 206 213 212 207 204 215 226 199 176 198 208 218 231 223 219 205 190 215 212 207 233 220 131 157 202 233 246 253 40 35 25 12 359 342 328 308 260 192 178 178 171 168
311 308 299 286 260 243 240 243 259 264 279 300 273 222 222 223 215 218 213 192 66 31 14 333 317 309 290 254 178 168 191 181 177 185 185 187 190 192 201 204 195 200 215 204 197 197 203 208 210 212 203 205 222 216 181 187 202 212 219 217 224 218 201 218 219 217 233 201 131 165 223 245 245 239 48 20 8 10 360 360 1 348 181 158 151 151 149 151
311 306 294 277 247 237 236 239 246 251 265 255 220 199 214 223 189 91 240 229 31 353 320 322 314 291 259 239 94 147 204 176 172 185 184 189 201 196 198 207 205 209 219 200 204 216 217 210 198 204 200 189 207 225 223 208 199 205 219 227 232 235 228 232 237 243 245 216 151 168 213 252 248 108 57 30 22 22 13 19 37 82 121 126 126 131 137 139
318 311 287 258 243 240 227 220 219 215 230 229 207 196 205 214 184 151 204 23 17 332 312 315 299 265 206 157 99 134 266 182 176 190 190 191 202 199 196 197 199 206 210 198 197 212 230 242 180 184 183 181 197 215 230 241 216 195 214 234 237 245 244 245 286 322 292 257 204 185 226 264 172 95 69 53 38 34 34 38 49 63 77 89 99 116 131 138
327 318 272 224 230 236 209 203 196 197 229 222 199 202 209 236 8 95 48 4 355 337 316 287 248 254 210 168 150 138 279 209 184 191 193 193 201 201 200 193 191 203 210 200 181 189 225 233 149 164 189 200 203 203 209 228 228 178 208 226 225 257 260 246 184 105 199 261 237 203 243 231 151 131 90 69 38 36 44 51 61 62 67 74 72 75 91 123
324 299 251 147 173 188 182 181 177 190 228 221 205 212 213 60 24 34 34 355 329 330 311 282 158 301 249 187 160 128 154 195 189 200 199 190 195 197 200 194 188 202 212 216 216 207 235 225 152 178 199 192 198 214 209 226 234 202 214 217 177 215 258 250 238 205 217 245 234 210 245 240 203 184 139 84 35 39 41 51 68 72 72 77 84 91 97 105
309 283 148 80 49 140 155 158 166 190 220 216 209 222 287 170 71 20 4 349 313 296 295 287 16 330 281 216 177 92 245 205 189 205 206 187 178 188 201 194 188 205 214 223 226 192 234 237 164 174 189 164 163 216 212 213 225 237 276 267 206 221 226 217 231 239 235 245 243 223 233 245 244 174 146 106 43 49 47 52 60 63 70 75 94 121 128 128
279 244 141 45 33 129 134 147 172 210 212 209 208 179 209 198 137 256 311 322 287 277 286 288 287 280 285 303 325 50 323 257 192 207 216 198 184 203 222 203 193 205 212 222 224 183 214 242 186 155 165 159 172 208 211 193 202 229 263 256 232 245 248 224 221 237 246 249 248 235 220 230 12 82 127 99 74 68 58 64 57 55 62 60 66 91 124 138
257 216 115 43 130 140 132 160 201 219 199 209 229 171 168 187 177 208 249 282 270 266 286 294 251 257 294 310 316 10 325 302 220 219 222 193 187 203 238 206 193 191 200 219 225 204 197 233 218 153 154 180 192 204 223 212 197 207 223 223 214 219 250 256 233 233 257 260 249 250 233 122 55 42 99 84 82 82 72 80 71 56 50 43 49 55 60 92
252 194 107 64 157 151 169 211 202 205 200 199 230 167 157 302 259 216 209 248 260 260 285 290 271 278 307 296 287 356 315 282 233 225 219 199 205 209 93 53 205 168 176 210 217 213 201 212 228 194 179 201 184 102 26 313 261 230 226 226 223 216 220 235 228 216 242 260 262 270 262 104 74 10 44 72 86 126 112 93 82 63 44 42 48 47 48 54
238 176 96 109 156 173 239 217 135 213 226 155 133 167 85 317 276 251 212 219 240 241 246 270 272 273 285 282 295 334 312 277 251 235 225 212 209 98 45 356 266 188 186 205 196 194 206 220 228 225 221 210 116 95 78 9 315 253 244 251 246 231 226 235 237 217 220 234 246 265 263 106 95 339 77 110 136 104 66 46 77 71 52 49 49 44 46 46
196 129 89 127 149 259 264 192 141 206 185 85 20 258 245 270 250 239 227 216 231 233 224 249 265 255 259 294 308 318 328 300 279 268 240 214 101 48 22 351 249 206 211 214 179 148 159 227 231 227 228 216 138 136 140 128 236 223 215 279 281 260 255 262 272 276 242 226 226 246 237 128 111 172 108 101 86 64 36 26 51 60 51 49 49 47 47 47
152 107 116 143 187 284 266 181 159 177 108 101 157 147 160 253 260 255 252 225 221 239 239 248 253 259 282 301 292 302 324 300 267 332 301 221 100 42 20 16 246 219 207 232 189 166 185 218 222 220 214 201 192 191 185 190 215 207 131 48 330 299 275 271 268 263 257 238 230 252 247 109 117 152 113 89 74 58 41 39 50 56 51 46 48 47 46 46
155 129 130 148 214 266 267 18 339 79 106 129 143 106 150 194 204 281 288 263 253 279 267 262 280 288 287 282 274 278 283 265 257 316 316 188 98 51 29 33 20 237 23 11 172 178 202 226 217 230 225 208 207 211 208 199 184 151 95 69 23 354 277 262 248 237 241 221 215 243 228 124 135 128 94 78 75 64 50 48 52 52 51 49 48 46 45 46
173 160 146 149 176 226 96 42 299 274 124 153 154 101 354 168 142 188 267 231 208 287 275 280 304 283 271 280 272 259 246 232 249 280 303 76 88 60 34 45 67 42 13 356 148 163 184 156 342 299 275 243 275 339 353 297 166 147 92 67 39 18 329 274 253 246 263 228 221 215 135 135 137 104 77 64 69 65 49 44 47 45 43 46 49 52 54 52
203 181 156 160 169 175 163 166 211 51 112 208 219 94 31 218 144 157 224 236 91 316 256 252 320 291 269 289 274 256 254 229 229 280 330 1 79 98 62 72 67 28 3 326 197 161 182 160 25 15 40 29 6 22 21 31 112 103 68 54 37 26 356 263 255 314 326 272 234 156 130 134 118 79 66 56 56 55 46 42 41 38 39 42 49 55 58 53
266 131 107 340 223 165 154 140 123 104 120 158 289 71 116 120 133 148 168 200 178 281 249 204 340 337 323 304 273 255 261 232 205 11 356 6 40 134 105 66 50 24 13 40 308 280 208 176 70 54 48 27 15 38 73 83 86 77 64 52 38 37 41 53 42 360 338 304 223 144 124 114 92 74 67 61 61 58 53 49 44 42 44 48 53 56 55 52
132 129 100 333 307 101 84 88 122 146 118 95 165 146 75 80 90 105 131 202 178 108 320 221 47 17 25 343 257 264 329 275 106 52 24 6 17 38 61 29 10 10 27 40 5 305 248 171 135 128 81 38 9 354 63 106 97 76 59 48 41 47 53 57 47 21 21 49 71 96 96 83 72 79 76 72 75 70 63 61 57 51 47 49 53 56 56 55
200 134 125 166 128 93 100 119 192 181 139 216 187 117 52 51 74 75 51 259 158 114 341 53 59 24 38 57 73 74 46 16 18 38 0 338 9 40 90 126 315 342 25 39 7 305 272 170 136 135 120 96 41 324 139 111 99 87 65 44 39 52 58 53 40 21 39 70 82 98 97 82 67 83 86 87 88 79 69 64 61 55 50 52 55 56 56 53
336 13 240 187 135 110 154 150 222 219 156 193 194 111 91 42 45 37 140 95 22 54 46 31 33 9 114 78 68 74 55 5 336 352 335 340 15 16 34 86 331 327 35 48 353 300 287 159 147 172 173 142 146 170 152 119 106 92 62 34 26 31 37 45 40 14 15 79 116 133 123 107 108 101 95 93 85 76 66 59 61 57 54 57 57 54 52 49
216 128 246 237 140 145 210 156 186 236 122 88 60 75 27 39 37 348 189 151 131 58 49 15 356 310 229 174 71 54 19 337 322 298 285 9 49 49 67 75 55 36 62 49 309 286 283 173 171 197 193 158 157 165 151 176 171 107 45 9 3 9 10 27 59 30 11 22 119 138 104 113 130 124 110 98 84 75 64 54 57 59 58 59 58 57 56 51